locationName,lineName,date,time,countIn,countOut
�n����ʂ�,3_1_3,2022/5/1,0:00,3,2
�n����ʂ�,3_1_3,2022/5/1,1:00,3,0
�n����ʂ�,3_1_3,2022/5/1,2:00,4,3
�n����ʂ�,3_1_3,2022/5/1,3:00,7,1
�n����ʂ�,3_1_3,2022/5/1,4:00,1,2
�n����ʂ�,3_1_3,2022/5/1,5:00,21,16
�n����ʂ�,3_1_3,2022/5/1,6:00,27,25
�n����ʂ�,3_1_3,2022/5/1,7:00,70,54
�n����ʂ�,3_1_3,2022/5/1,8:00,119,130
�n����ʂ�,3_1_3,2022/5/1,9:00,177,178
�n����ʂ�,3_1_3,2022/5/1,10:00,338,426
�n����ʂ�,3_1_3,2022/5/1,11:00,492,568
�n����ʂ�,3_1_3,2022/5/1,12:00,685,657
�n����ʂ�,3_1_3,2022/5/1,13:00,704,706
�n����ʂ�,3_1_3,2022/5/1,14:00,771,742
�n����ʂ�,3_1_3,2022/5/1,15:00,688,601
�n����ʂ�,3_1_3,2022/5/1,16:00,585,454
�n����ʂ�,3_1_3,2022/5/1,17:00,396,277
�n����ʂ�,3_1_3,2022/5/1,18:00,204,199
�n����ʂ�,3_1_3,2022/5/1,19:00,102,101
�n����ʂ�,3_1_3,2022/5/1,20:00,32,9
�n����ʂ�,3_1_3,2022/5/1,21:00,22,4
�n����ʂ�,3_1_3,2022/5/1,22:00,13,3
�n����ʂ�,3_1_3,2022/5/1,23:00,3,3
�n����ʂ�,3_1_3,2022/5/2,0:00,4,0
�n����ʂ�,3_1_3,2022/5/2,1:00,6,2
�n����ʂ�,3_1_3,2022/5/2,2:00,3,2
�n����ʂ�,3_1_3,2022/5/2,3:00,1,2
�n����ʂ�,3_1_3,2022/5/2,4:00,2,1
�n����ʂ�,3_1_3,2022/5/2,5:00,25,24
�n����ʂ�,3_1_3,2022/5/2,6:00,48,58
�n����ʂ�,3_1_3,2022/5/2,7:00,75,396
�n����ʂ�,3_1_3,2022/5/2,8:00,97,342
�n����ʂ�,3_1_3,2022/5/2,9:00,204,213
�n����ʂ�,3_1_3,2022/5/2,10:00,343,419
�n����ʂ�,3_1_3,2022/5/2,11:00,639,448
�n����ʂ�,3_1_3,2022/5/2,12:00,665,535
�n����ʂ�,3_1_3,2022/5/2,13:00,607,604
�n����ʂ�,3_1_3,2022/5/2,14:00,634,697
�n����ʂ�,3_1_3,2022/5/2,15:00,541,429
�n����ʂ�,3_1_3,2022/5/2,16:00,576,395
�n����ʂ�,3_1_3,2022/5/2,17:00,512,277
�n����ʂ�,3_1_3,2022/5/2,18:00,439,219
�n����ʂ�,3_1_3,2022/5/2,19:00,143,125
�n����ʂ�,3_1_3,2022/5/2,20:00,45,19
�n����ʂ�,3_1_3,2022/5/2,21:00,31,6
�n����ʂ�,3_1_3,2022/5/2,22:00,11,7
�n����ʂ�,3_1_3,2022/5/2,23:00,12,4
�n����ʂ�,3_1_3,2022/5/3,0:00,8,0
�n����ʂ�,3_1_3,2022/5/3,1:00,2,0
�n����ʂ�,3_1_3,2022/5/3,2:00,3,0
�n����ʂ�,3_1_3,2022/5/3,3:00,2,2
�n����ʂ�,3_1_3,2022/5/3,4:00,2,1
�n����ʂ�,3_1_3,2022/5/3,5:00,25,14
�n����ʂ�,3_1_3,2022/5/3,6:00,52,35
�n����ʂ�,3_1_3,2022/5/3,7:00,51,71
�n����ʂ�,3_1_3,2022/5/3,8:00,99,106
�n����ʂ�,3_1_3,2022/5/3,9:00,178,266
�n����ʂ�,3_1_3,2022/5/3,10:00,363,484
�n����ʂ�,3_1_3,2022/5/3,11:00,530,551
�n����ʂ�,3_1_3,2022/5/3,12:00,632,549
�n����ʂ�,3_1_3,2022/5/3,13:00,652,671
�n����ʂ�,3_1_3,2022/5/3,14:00,703,644
�n����ʂ�,3_1_3,2022/5/3,15:00,765,593
�n����ʂ�,3_1_3,2022/5/3,16:00,794,547
�n����ʂ�,3_1_3,2022/5/3,17:00,687,485
�n����ʂ�,3_1_3,2022/5/3,18:00,358,296
�n����ʂ�,3_1_3,2022/5/3,19:00,156,156
�n����ʂ�,3_1_3,2022/5/3,20:00,42,11
�n����ʂ�,3_1_3,2022/5/3,21:00,25,3
�n����ʂ�,3_1_3,2022/5/3,22:00,16,8
�n����ʂ�,3_1_3,2022/5/3,23:00,13,8
�n����ʂ�,3_1_3,2022/5/4,0:00,7,5
�n����ʂ�,3_1_3,2022/5/4,1:00,0,0
�n����ʂ�,3_1_3,2022/5/4,2:00,4,1
�n����ʂ�,3_1_3,2022/5/4,3:00,2,1
�n����ʂ�,3_1_3,2022/5/4,4:00,4,5
�n����ʂ�,3_1_3,2022/5/4,5:00,21,22
�n����ʂ�,3_1_3,2022/5/4,6:00,44,40
�n����ʂ�,3_1_3,2022/5/4,7:00,77,62
�n����ʂ�,3_1_3,2022/5/4,8:00,106,130
�n����ʂ�,3_1_3,2022/5/4,9:00,192,288
�n����ʂ�,3_1_3,2022/5/4,10:00,409,577
�n����ʂ�,3_1_3,2022/5/4,11:00,544,611
�n����ʂ�,3_1_3,2022/5/4,12:00,689,687
�n����ʂ�,3_1_3,2022/5/4,13:00,814,623
�n����ʂ�,3_1_3,2022/5/4,14:00,798,728
�n����ʂ�,3_1_3,2022/5/4,15:00,858,621
�n����ʂ�,3_1_3,2022/5/4,16:00,800,600
�n����ʂ�,3_1_3,2022/5/4,17:00,628,485
�n����ʂ�,3_1_3,2022/5/4,18:00,342,279
�n����ʂ�,3_1_3,2022/5/4,19:00,157,147
�n����ʂ�,3_1_3,2022/5/4,20:00,87,61
�n����ʂ�,3_1_3,2022/5/4,21:00,27,5
�n����ʂ�,3_1_3,2022/5/4,22:00,18,3
�n����ʂ�,3_1_3,2022/5/4,23:00,7,5
�n����ʂ�,3_1_3,2022/5/5,0:00,9,1
�n����ʂ�,3_1_3,2022/5/5,1:00,2,1
�n����ʂ�,3_1_3,2022/5/5,2:00,0,1
�n����ʂ�,3_1_3,2022/5/5,3:00,2,1
�n����ʂ�,3_1_3,2022/5/5,4:00,1,1
�n����ʂ�,3_1_3,2022/5/5,5:00,32,12
�n����ʂ�,3_1_3,2022/5/5,6:00,54,32
�n����ʂ�,3_1_3,2022/5/5,7:00,77,48
�n����ʂ�,3_1_3,2022/5/5,8:00,110,93
�n����ʂ�,3_1_3,2022/5/5,9:00,178,241
�n����ʂ�,3_1_3,2022/5/5,10:00,385,562
�n����ʂ�,3_1_3,2022/5/5,11:00,539,467
�n����ʂ�,3_1_3,2022/5/5,12:00,657,596
�n����ʂ�,3_1_3,2022/5/5,13:00,641,564
�n����ʂ�,3_1_3,2022/5/5,14:00,832,694
�n����ʂ�,3_1_3,2022/5/5,15:00,787,545
�n����ʂ�,3_1_3,2022/5/5,16:00,558,415
�n����ʂ�,3_1_3,2022/5/5,17:00,396,328
�n����ʂ�,3_1_3,2022/5/5,18:00,187,136
�n����ʂ�,3_1_3,2022/5/5,19:00,129,115
�n����ʂ�,3_1_3,2022/5/5,20:00,51,21
�n����ʂ�,3_1_3,2022/5/5,21:00,17,3
�n����ʂ�,3_1_3,2022/5/5,22:00,5,3
�n����ʂ�,3_1_3,2022/5/5,23:00,7,1
�n����ʂ�,3_1_3,2022/5/6,0:00,2,1
�n����ʂ�,3_1_3,2022/5/6,1:00,2,0
�n����ʂ�,3_1_3,2022/5/6,2:00,3,2
�n����ʂ�,3_1_3,2022/5/6,3:00,1,1
�n����ʂ�,3_1_3,2022/5/6,4:00,2,2
�n����ʂ�,3_1_3,2022/5/6,5:00,18,24
�n����ʂ�,3_1_3,2022/5/6,6:00,36,37
�n����ʂ�,3_1_3,2022/5/6,7:00,101,401
�n����ʂ�,3_1_3,2022/5/6,8:00,119,329
�n����ʂ�,3_1_3,2022/5/6,9:00,160,174
�n����ʂ�,3_1_3,2022/5/6,10:00,317,309
�n����ʂ�,3_1_3,2022/5/6,11:00,437,307
�n����ʂ�,3_1_3,2022/5/6,12:00,515,430
�n����ʂ�,3_1_3,2022/5/6,13:00,417,457
�n����ʂ�,3_1_3,2022/5/6,14:00,351,309
�n����ʂ�,3_1_3,2022/5/6,15:00,502,261
�n����ʂ�,3_1_3,2022/5/6,16:00,501,253
�n����ʂ�,3_1_3,2022/5/6,17:00,420,213
�n����ʂ�,3_1_3,2022/5/6,18:00,257,157
�n����ʂ�,3_1_3,2022/5/6,19:00,99,128
�n����ʂ�,3_1_3,2022/5/6,20:00,54,14
�n����ʂ�,3_1_3,2022/5/6,21:00,46,5
�n����ʂ�,3_1_3,2022/5/6,22:00,18,5
�n����ʂ�,3_1_3,2022/5/6,23:00,14,4
�n����ʂ�,3_1_3,2022/5/7,0:00,9,3
�n����ʂ�,3_1_3,2022/5/7,1:00,4,0
�n����ʂ�,3_1_3,2022/5/7,2:00,4,0
�n����ʂ�,3_1_3,2022/5/7,3:00,4,3
�n����ʂ�,3_1_3,2022/5/7,4:00,6,2
�n����ʂ�,3_1_3,2022/5/7,5:00,22,20
�n����ʂ�,3_1_3,2022/5/7,6:00,30,27
�n����ʂ�,3_1_3,2022/5/7,7:00,61,133
�n����ʂ�,3_1_3,2022/5/7,8:00,123,246
�n����ʂ�,3_1_3,2022/5/7,9:00,139,164
�n����ʂ�,3_1_3,2022/5/7,10:00,269,300
�n����ʂ�,3_1_3,2022/5/7,11:00,277,303
�n����ʂ�,3_1_3,2022/5/7,12:00,405,367
�n����ʂ�,3_1_3,2022/5/7,13:00,367,399
�n����ʂ�,3_1_3,2022/5/7,14:00,579,328
�n����ʂ�,3_1_3,2022/5/7,15:00,436,277
�n����ʂ�,3_1_3,2022/5/7,16:00,359,280
�n����ʂ�,3_1_3,2022/5/7,17:00,257,198
�n����ʂ�,3_1_3,2022/5/7,18:00,178,146
�n����ʂ�,3_1_3,2022/5/7,19:00,94,70
�n����ʂ�,3_1_3,2022/5/7,20:00,73,15
�n����ʂ�,3_1_3,2022/5/7,21:00,22,14
�n����ʂ�,3_1_3,2022/5/7,22:00,13,16
�n����ʂ�,3_1_3,2022/5/7,23:00,18,0
�n����ʂ�,3_1_3,2022/5/8,0:00,9,0
�n����ʂ�,3_1_3,2022/5/8,1:00,9,1
�n����ʂ�,3_1_3,2022/5/8,2:00,3,0
�n����ʂ�,3_1_3,2022/5/8,3:00,2,1
�n����ʂ�,3_1_3,2022/5/8,4:00,0,4
�n����ʂ�,3_1_3,2022/5/8,5:00,26,21
�n����ʂ�,3_1_3,2022/5/8,6:00,29,33
�n����ʂ�,3_1_3,2022/5/8,7:00,48,49
�n����ʂ�,3_1_3,2022/5/8,8:00,79,69
�n����ʂ�,3_1_3,2022/5/8,9:00,111,108
�n����ʂ�,3_1_3,2022/5/8,10:00,267,302
�n����ʂ�,3_1_3,2022/5/8,11:00,260,373
�n����ʂ�,3_1_3,2022/5/8,12:00,374,322
�n����ʂ�,3_1_3,2022/5/8,13:00,410,382
�n����ʂ�,3_1_3,2022/5/8,14:00,353,332
�n����ʂ�,3_1_3,2022/5/8,15:00,309,266
�n����ʂ�,3_1_3,2022/5/8,16:00,246,209
�n����ʂ�,3_1_3,2022/5/8,17:00,163,145
�n����ʂ�,3_1_3,2022/5/8,18:00,102,107
�n����ʂ�,3_1_3,2022/5/8,19:00,46,33
�n����ʂ�,3_1_3,2022/5/8,20:00,24,3
�n����ʂ�,3_1_3,2022/5/8,21:00,10,6
�n����ʂ�,3_1_3,2022/5/8,22:00,10,2
�n����ʂ�,3_1_3,2022/5/8,23:00,6,1
�n����ʂ�,3_1_3,2022/5/9,0:00,4,3
�n����ʂ�,3_1_3,2022/5/9,1:00,0,1
�n����ʂ�,3_1_3,2022/5/9,2:00,0,0
�n����ʂ�,3_1_3,2022/5/9,3:00,1,0
�n����ʂ�,3_1_3,2022/5/9,4:00,3,1
�n����ʂ�,3_1_3,2022/5/9,5:00,16,18
�n����ʂ�,3_1_3,2022/5/9,6:00,42,44
�n����ʂ�,3_1_3,2022/5/9,7:00,68,298
�n����ʂ�,3_1_3,2022/5/9,8:00,115,154
�n����ʂ�,3_1_3,2022/5/9,9:00,148,121
�n����ʂ�,3_1_3,2022/5/9,10:00,151,132
�n����ʂ�,3_1_3,2022/5/9,11:00,164,171
�n����ʂ�,3_1_3,2022/5/9,12:00,189,193
�n����ʂ�,3_1_3,2022/5/9,13:00,178,187
�n����ʂ�,3_1_3,2022/5/9,14:00,192,166
�n����ʂ�,3_1_3,2022/5/9,15:00,265,148
�n����ʂ�,3_1_3,2022/5/9,16:00,254,124
�n����ʂ�,3_1_3,2022/5/9,17:00,219,111
�n����ʂ�,3_1_3,2022/5/9,18:00,140,84
�n����ʂ�,3_1_3,2022/5/9,19:00,78,55
�n����ʂ�,3_1_3,2022/5/9,20:00,19,7
�n����ʂ�,3_1_3,2022/5/9,21:00,21,5
�n����ʂ�,3_1_3,2022/5/9,22:00,7,4
�n����ʂ�,3_1_3,2022/5/9,23:00,1,0
�n����ʂ�,3_1_3,2022/5/10,0:00,2,1
�n����ʂ�,3_1_3,2022/5/10,1:00,0,0
�n����ʂ�,3_1_3,2022/5/10,2:00,2,0
�n����ʂ�,3_1_3,2022/5/10,3:00,1,2
�n����ʂ�,3_1_3,2022/5/10,4:00,5,2
�n����ʂ�,3_1_3,2022/5/10,5:00,19,25
�n����ʂ�,3_1_3,2022/5/10,6:00,43,52
�n����ʂ�,3_1_3,2022/5/10,7:00,90,368
�n����ʂ�,3_1_3,2022/5/10,8:00,111,341
�n����ʂ�,3_1_3,2022/5/10,9:00,160,109
�n����ʂ�,3_1_3,2022/5/10,10:00,196,162
�n����ʂ�,3_1_3,2022/5/10,11:00,175,168
�n����ʂ�,3_1_3,2022/5/10,12:00,208,190
�n����ʂ�,3_1_3,2022/5/10,13:00,164,159
�n����ʂ�,3_1_3,2022/5/10,14:00,154,129
�n����ʂ�,3_1_3,2022/5/10,15:00,155,102
�n����ʂ�,3_1_3,2022/5/10,16:00,462,128
�n����ʂ�,3_1_3,2022/5/10,17:00,337,148
�n����ʂ�,3_1_3,2022/5/10,18:00,191,110
�n����ʂ�,3_1_3,2022/5/10,19:00,83,67
�n����ʂ�,3_1_3,2022/5/10,20:00,38,6
�n����ʂ�,3_1_3,2022/5/10,21:00,13,6
�n����ʂ�,3_1_3,2022/5/10,22:00,21,5
�n����ʂ�,3_1_3,2022/5/10,23:00,7,2
�n����ʂ�,3_1_3,2022/5/11,0:00,3,0
�n����ʂ�,3_1_3,2022/5/11,1:00,5,2
�n����ʂ�,3_1_3,2022/5/11,2:00,1,0
�n����ʂ�,3_1_3,2022/5/11,3:00,2,5
�n����ʂ�,3_1_3,2022/5/11,4:00,7,5
�n����ʂ�,3_1_3,2022/5/11,5:00,17,21
�n����ʂ�,3_1_3,2022/5/11,6:00,43,49
�n����ʂ�,3_1_3,2022/5/11,7:00,61,163
�n����ʂ�,3_1_3,2022/5/11,8:00,62,218
�n����ʂ�,3_1_3,2022/5/11,9:00,117,82
�n����ʂ�,3_1_3,2022/5/11,10:00,154,109
�n����ʂ�,3_1_3,2022/5/11,11:00,157,118
�n����ʂ�,3_1_3,2022/5/11,12:00,215,141
�n����ʂ�,3_1_3,2022/5/11,13:00,172,150
�n����ʂ�,3_1_3,2022/5/11,14:00,150,121
�n����ʂ�,3_1_3,2022/5/11,15:00,159,121
�n����ʂ�,3_1_3,2022/5/11,16:00,196,103
�n����ʂ�,3_1_3,2022/5/11,17:00,214,94
�n����ʂ�,3_1_3,2022/5/11,18:00,110,68
�n����ʂ�,3_1_3,2022/5/11,19:00,60,45
�n����ʂ�,3_1_3,2022/5/11,20:00,40,10
�n����ʂ�,3_1_3,2022/5/11,21:00,48,49
�n����ʂ�,3_1_3,2022/5/11,22:00,12,8
�n����ʂ�,3_1_3,2022/5/11,23:00,2,1
�n����ʂ�,3_1_3,2022/5/12,0:00,4,0
�n����ʂ�,3_1_3,2022/5/12,1:00,0,0
�n����ʂ�,3_1_3,2022/5/12,2:00,2,1
�n����ʂ�,3_1_3,2022/5/12,3:00,3,2
�n����ʂ�,3_1_3,2022/5/12,4:00,4,3
�n����ʂ�,3_1_3,2022/5/12,5:00,19,19
�n����ʂ�,3_1_3,2022/5/12,6:00,30,41
�n����ʂ�,3_1_3,2022/5/12,7:00,55,244
�n����ʂ�,3_1_3,2022/5/12,8:00,83,194
�n����ʂ�,3_1_3,2022/5/12,9:00,104,96
�n����ʂ�,3_1_3,2022/5/12,10:00,165,119
�n����ʂ�,3_1_3,2022/5/12,11:00,201,97
�n����ʂ�,3_1_3,2022/5/12,12:00,243,129
�n����ʂ�,3_1_3,2022/5/12,13:00,173,130
�n����ʂ�,3_1_3,2022/5/12,14:00,93,105
�n����ʂ�,3_1_3,2022/5/12,15:00,115,82
�n����ʂ�,3_1_3,2022/5/12,16:00,126,102
�n����ʂ�,3_1_3,2022/5/12,17:00,181,119
�n����ʂ�,3_1_3,2022/5/12,18:00,109,85
�n����ʂ�,3_1_3,2022/5/12,19:00,66,48
�n����ʂ�,3_1_3,2022/5/12,20:00,27,17
�n����ʂ�,3_1_3,2022/5/12,21:00,17,3
�n����ʂ�,3_1_3,2022/5/12,22:00,8,5
�n����ʂ�,3_1_3,2022/5/12,23:00,4,1
�n����ʂ�,3_1_3,2022/5/13,0:00,1,0
�n����ʂ�,3_1_3,2022/5/13,1:00,2,0
�n����ʂ�,3_1_3,2022/5/13,2:00,0,1
�n����ʂ�,3_1_3,2022/5/13,3:00,0,3
�n����ʂ�,3_1_3,2022/5/13,4:00,1,2
�n����ʂ�,3_1_3,2022/5/13,5:00,24,18
�n����ʂ�,3_1_3,2022/5/13,6:00,43,51
�n����ʂ�,3_1_3,2022/5/13,7:00,52,126
�n����ʂ�,3_1_3,2022/5/13,8:00,82,191
�n����ʂ�,3_1_3,2022/5/13,9:00,115,102
�n����ʂ�,3_1_3,2022/5/13,10:00,94,93
�n����ʂ�,3_1_3,2022/5/13,11:00,138,93
�n����ʂ�,3_1_3,2022/5/13,12:00,262,151
�n����ʂ�,3_1_3,2022/5/13,13:00,197,112
�n����ʂ�,3_1_3,2022/5/13,14:00,106,96
�n����ʂ�,3_1_3,2022/5/13,15:00,122,74
�n����ʂ�,3_1_3,2022/5/13,16:00,138,113
�n����ʂ�,3_1_3,2022/5/13,17:00,178,115
�n����ʂ�,3_1_3,2022/5/13,18:00,95,62
�n����ʂ�,3_1_3,2022/5/13,19:00,43,52
�n����ʂ�,3_1_3,2022/5/13,20:00,5,3
�n����ʂ�,3_1_3,2022/5/13,21:00,11,11
�n����ʂ�,3_1_3,2022/5/13,22:00,11,4
�n����ʂ�,3_1_3,2022/5/13,23:00,3,3
�n����ʂ�,3_1_3,2022/5/14,0:00,2,0
�n����ʂ�,3_1_3,2022/5/14,1:00,2,0
�n����ʂ�,3_1_3,2022/5/14,2:00,2,2
�n����ʂ�,3_1_3,2022/5/14,3:00,3,4
�n����ʂ�,3_1_3,2022/5/14,4:00,4,2
�n����ʂ�,3_1_3,2022/5/14,5:00,25,21
�n����ʂ�,3_1_3,2022/5/14,6:00,36,34
�n����ʂ�,3_1_3,2022/5/14,7:00,65,70
�n����ʂ�,3_1_3,2022/5/14,8:00,80,103
�n����ʂ�,3_1_3,2022/5/14,9:00,136,132
�n����ʂ�,3_1_3,2022/5/14,10:00,219,218
�n����ʂ�,3_1_3,2022/5/14,11:00,212,275
�n����ʂ�,3_1_3,2022/5/14,12:00,336,282
�n����ʂ�,3_1_3,2022/5/14,13:00,353,284
�n����ʂ�,3_1_3,2022/5/14,14:00,295,302
�n����ʂ�,3_1_3,2022/5/14,15:00,351,199
�n����ʂ�,3_1_3,2022/5/14,16:00,270,261
�n����ʂ�,3_1_3,2022/5/14,17:00,227,180
�n����ʂ�,3_1_3,2022/5/14,18:00,164,139
�n����ʂ�,3_1_3,2022/5/14,19:00,82,87
�n����ʂ�,3_1_3,2022/5/14,20:00,34,16
�n����ʂ�,3_1_3,2022/5/14,21:00,27,5
�n����ʂ�,3_1_3,2022/5/14,22:00,15,2
�n����ʂ�,3_1_3,2022/5/14,23:00,9,2
�n����ʂ�,3_1_3,2022/5/15,0:00,5,1
�n����ʂ�,3_1_3,2022/5/15,1:00,5,2
�n����ʂ�,3_1_3,2022/5/15,2:00,1,1
�n����ʂ�,3_1_3,2022/5/15,3:00,1,2
�n����ʂ�,3_1_3,2022/5/15,4:00,5,1
�n����ʂ�,3_1_3,2022/5/15,5:00,20,22
�n����ʂ�,3_1_3,2022/5/15,6:00,24,19
�n����ʂ�,3_1_3,2022/5/15,7:00,46,96
�n����ʂ�,3_1_3,2022/5/15,8:00,89,179
�n����ʂ�,3_1_3,2022/5/15,9:00,119,127
�n����ʂ�,3_1_3,2022/5/15,10:00,211,216
�n����ʂ�,3_1_3,2022/5/15,11:00,290,275
�n����ʂ�,3_1_3,2022/5/15,12:00,354,326
�n����ʂ�,3_1_3,2022/5/15,13:00,410,400
�n����ʂ�,3_1_3,2022/5/15,14:00,523,339
�n����ʂ�,3_1_3,2022/5/15,15:00,382,294
�n����ʂ�,3_1_3,2022/5/15,16:00,267,201
�n����ʂ�,3_1_3,2022/5/15,17:00,243,176
�n����ʂ�,3_1_3,2022/5/15,18:00,116,104
�n����ʂ�,3_1_3,2022/5/15,19:00,52,43
�n����ʂ�,3_1_3,2022/5/15,20:00,21,9
�n����ʂ�,3_1_3,2022/5/15,21:00,27,23
�n����ʂ�,3_1_3,2022/5/15,22:00,17,9
�n����ʂ�,3_1_3,2022/5/15,23:00,2,1
�n����ʂ�,3_1_3,2022/5/16,0:00,1,0
�n����ʂ�,3_1_3,2022/5/16,1:00,2,0
�n����ʂ�,3_1_3,2022/5/16,2:00,0,1
�n����ʂ�,3_1_3,2022/5/16,3:00,1,1
�n����ʂ�,3_1_3,2022/5/16,4:00,5,4
�n����ʂ�,3_1_3,2022/5/16,5:00,22,29
�n����ʂ�,3_1_3,2022/5/16,6:00,40,52
�n����ʂ�,3_1_3,2022/5/16,7:00,84,349
�n����ʂ�,3_1_3,2022/5/16,8:00,97,339
�n����ʂ�,3_1_3,2022/5/16,9:00,148,117
�n����ʂ�,3_1_3,2022/5/16,10:00,174,165
�n����ʂ�,3_1_3,2022/5/16,11:00,166,182
�n����ʂ�,3_1_3,2022/5/16,12:00,282,247
�n����ʂ�,3_1_3,2022/5/16,13:00,199,212
�n����ʂ�,3_1_3,2022/5/16,14:00,217,162
�n����ʂ�,3_1_3,2022/5/16,15:00,322,191
�n����ʂ�,3_1_3,2022/5/16,16:00,254,171
�n����ʂ�,3_1_3,2022/5/16,17:00,314,140
�n����ʂ�,3_1_3,2022/5/16,18:00,414,113
�n����ʂ�,3_1_3,2022/5/16,19:00,93,61
�n����ʂ�,3_1_3,2022/5/16,20:00,24,5
�n����ʂ�,3_1_3,2022/5/16,21:00,19,0
�n����ʂ�,3_1_3,2022/5/16,22:00,10,7
�n����ʂ�,3_1_3,2022/5/16,23:00,5,1
�n����ʂ�,3_1_3,2022/5/17,0:00,3,0
�n����ʂ�,3_1_3,2022/5/17,1:00,2,0
�n����ʂ�,3_1_3,2022/5/17,2:00,2,1
�n����ʂ�,3_1_3,2022/5/17,3:00,0,1
�n����ʂ�,3_1_3,2022/5/17,4:00,3,6
�n����ʂ�,3_1_3,2022/5/17,5:00,21,22
�n����ʂ�,3_1_3,2022/5/17,6:00,42,63
�n����ʂ�,3_1_3,2022/5/17,7:00,86,350
�n����ʂ�,3_1_3,2022/5/17,8:00,95,329
�n����ʂ�,3_1_3,2022/5/17,9:00,138,109
�n����ʂ�,3_1_3,2022/5/17,10:00,161,154
�n����ʂ�,3_1_3,2022/5/17,11:00,171,161
�n����ʂ�,3_1_3,2022/5/17,12:00,236,213
�n����ʂ�,3_1_3,2022/5/17,13:00,221,199
�n����ʂ�,3_1_3,2022/5/17,14:00,178,128
�n����ʂ�,3_1_3,2022/5/17,15:00,153,115
�n����ʂ�,3_1_3,2022/5/17,16:00,303,132
�n����ʂ�,3_1_3,2022/5/17,17:00,298,80
�n����ʂ�,3_1_3,2022/5/17,18:00,438,124
�n����ʂ�,3_1_3,2022/5/17,19:00,68,57
�n����ʂ�,3_1_3,2022/5/17,20:00,31,7
�n����ʂ�,3_1_3,2022/5/17,21:00,42,15
�n����ʂ�,3_1_3,2022/5/17,22:00,7,5
�n����ʂ�,3_1_3,2022/5/17,23:00,5,2
�n����ʂ�,3_1_3,2022/5/18,0:00,2,2
�n����ʂ�,3_1_3,2022/5/18,1:00,1,0
�n����ʂ�,3_1_3,2022/5/18,2:00,2,2
�n����ʂ�,3_1_3,2022/5/18,3:00,1,2
�n����ʂ�,3_1_3,2022/5/18,4:00,1,4
�n����ʂ�,3_1_3,2022/5/18,5:00,22,21
�n����ʂ�,3_1_3,2022/5/18,6:00,55,77
�n����ʂ�,3_1_3,2022/5/18,7:00,96,422
�n����ʂ�,3_1_3,2022/5/18,8:00,102,352
�n����ʂ�,3_1_3,2022/5/18,9:00,121,109
�n����ʂ�,3_1_3,2022/5/18,10:00,159,180
�n����ʂ�,3_1_3,2022/5/18,11:00,226,180
�n����ʂ�,3_1_3,2022/5/18,12:00,218,204
�n����ʂ�,3_1_3,2022/5/18,13:00,224,209
�n����ʂ�,3_1_3,2022/5/18,14:00,216,189
�n����ʂ�,3_1_3,2022/5/18,15:00,259,99
�n����ʂ�,3_1_3,2022/5/18,16:00,449,108
�n����ʂ�,3_1_3,2022/5/18,17:00,339,121
�n����ʂ�,3_1_3,2022/5/18,18:00,146,109
�n����ʂ�,3_1_3,2022/5/18,19:00,83,56
�n����ʂ�,3_1_3,2022/5/18,20:00,31,7
�n����ʂ�,3_1_3,2022/5/18,21:00,23,7
�n����ʂ�,3_1_3,2022/5/18,22:00,7,4
�n����ʂ�,3_1_3,2022/5/18,23:00,2,1
�n����ʂ�,3_1_3,2022/5/19,0:00,1,0
�n����ʂ�,3_1_3,2022/5/19,1:00,2,0
�n����ʂ�,3_1_3,2022/5/19,2:00,1,2
�n����ʂ�,3_1_3,2022/5/19,3:00,2,1
�n����ʂ�,3_1_3,2022/5/19,4:00,2,4
�n����ʂ�,3_1_3,2022/5/19,5:00,26,26
�n����ʂ�,3_1_3,2022/5/19,6:00,38,67
�n����ʂ�,3_1_3,2022/5/19,7:00,104,437
�n����ʂ�,3_1_3,2022/5/19,8:00,116,330
�n����ʂ�,3_1_3,2022/5/19,9:00,133,106
�n����ʂ�,3_1_3,2022/5/19,10:00,178,161
�n����ʂ�,3_1_3,2022/5/19,11:00,177,183
�n����ʂ�,3_1_3,2022/5/19,12:00,216,201
�n����ʂ�,3_1_3,2022/5/19,13:00,192,171
�n����ʂ�,3_1_3,2022/5/19,14:00,174,142
�n����ʂ�,3_1_3,2022/5/19,15:00,179,184
�n����ʂ�,3_1_3,2022/5/19,16:00,247,158
�n����ʂ�,3_1_3,2022/5/19,17:00,308,135
�n����ʂ�,3_1_3,2022/5/19,18:00,452,95
�n����ʂ�,3_1_3,2022/5/19,19:00,79,66
�n����ʂ�,3_1_3,2022/5/19,20:00,28,8
�n����ʂ�,3_1_3,2022/5/19,21:00,25,4
�n����ʂ�,3_1_3,2022/5/19,22:00,11,3
�n����ʂ�,3_1_3,2022/5/19,23:00,2,2
�n����ʂ�,3_1_3,2022/5/20,0:00,0,3
�n����ʂ�,3_1_3,2022/5/20,1:00,6,1
�n����ʂ�,3_1_3,2022/5/20,2:00,0,2
�n����ʂ�,3_1_3,2022/5/20,3:00,1,1
�n����ʂ�,3_1_3,2022/5/20,4:00,5,1
�n����ʂ�,3_1_3,2022/5/20,5:00,17,21
�n����ʂ�,3_1_3,2022/5/20,6:00,44,54
�n����ʂ�,3_1_3,2022/5/20,7:00,91,342
�n����ʂ�,3_1_3,2022/5/20,8:00,106,317
�n����ʂ�,3_1_3,2022/5/20,9:00,124,108
�n����ʂ�,3_1_3,2022/5/20,10:00,173,163
�n����ʂ�,3_1_3,2022/5/20,11:00,173,172
�n����ʂ�,3_1_3,2022/5/20,12:00,213,203
�n����ʂ�,3_1_3,2022/5/20,13:00,229,194
�n����ʂ�,3_1_3,2022/5/20,14:00,185,187
�n����ʂ�,3_1_3,2022/5/20,15:00,258,163
�n����ʂ�,3_1_3,2022/5/20,16:00,215,134
�n����ʂ�,3_1_3,2022/5/20,17:00,302,143
�n����ʂ�,3_1_3,2022/5/20,18:00,400,143
�n����ʂ�,3_1_3,2022/5/20,19:00,74,70
�n����ʂ�,3_1_3,2022/5/20,20:00,35,7
�n����ʂ�,3_1_3,2022/5/20,21:00,28,5
�n����ʂ�,3_1_3,2022/5/20,22:00,9,8
�n����ʂ�,3_1_3,2022/5/20,23:00,20,3
�n����ʂ�,3_1_3,2022/5/21,0:00,11,1
�n����ʂ�,3_1_3,2022/5/21,1:00,4,1
�n����ʂ�,3_1_3,2022/5/21,2:00,7,2
�n����ʂ�,3_1_3,2022/5/21,3:00,1,3
�n����ʂ�,3_1_3,2022/5/21,4:00,8,4
�n����ʂ�,3_1_3,2022/5/21,5:00,23,16
�n����ʂ�,3_1_3,2022/5/21,6:00,35,24
�n����ʂ�,3_1_3,2022/5/21,7:00,68,81
�n����ʂ�,3_1_3,2022/5/21,8:00,96,122
�n����ʂ�,3_1_3,2022/5/21,9:00,127,137
�n����ʂ�,3_1_3,2022/5/21,10:00,197,245
�n����ʂ�,3_1_3,2022/5/21,11:00,269,303
�n����ʂ�,3_1_3,2022/5/21,12:00,364,354
�n����ʂ�,3_1_3,2022/5/21,13:00,361,322
�n����ʂ�,3_1_3,2022/5/21,14:00,336,313
�n����ʂ�,3_1_3,2022/5/21,15:00,331,290
�n����ʂ�,3_1_3,2022/5/21,16:00,305,259
�n����ʂ�,3_1_3,2022/5/21,17:00,244,156
�n����ʂ�,3_1_3,2022/5/21,18:00,166,190
�n����ʂ�,3_1_3,2022/5/21,19:00,76,67
�n����ʂ�,3_1_3,2022/5/21,20:00,42,16
�n����ʂ�,3_1_3,2022/5/21,21:00,30,11
�n����ʂ�,3_1_3,2022/5/21,22:00,17,4
�n����ʂ�,3_1_3,2022/5/21,23:00,10,3
�n����ʂ�,3_1_3,2022/5/22,0:00,4,3
�n����ʂ�,3_1_3,2022/5/22,1:00,8,0
�n����ʂ�,3_1_3,2022/5/22,2:00,2,1
�n����ʂ�,3_1_3,2022/5/22,3:00,4,0
�n����ʂ�,3_1_3,2022/5/22,4:00,6,5
�n����ʂ�,3_1_3,2022/5/22,5:00,37,25
�n����ʂ�,3_1_3,2022/5/22,6:00,26,48
�n����ʂ�,3_1_3,2022/5/22,7:00,41,61
�n����ʂ�,3_1_3,2022/5/22,8:00,67,109
�n����ʂ�,3_1_3,2022/5/22,9:00,99,158
�n����ʂ�,3_1_3,2022/5/22,10:00,214,332
�n����ʂ�,3_1_3,2022/5/22,11:00,401,445
�n����ʂ�,3_1_3,2022/5/22,12:00,463,387
�n����ʂ�,3_1_3,2022/5/22,13:00,506,411
�n����ʂ�,3_1_3,2022/5/22,14:00,506,415
�n����ʂ�,3_1_3,2022/5/22,15:00,415,296
�n����ʂ�,3_1_3,2022/5/22,16:00,332,261
�n����ʂ�,3_1_3,2022/5/22,17:00,200,152
�n����ʂ�,3_1_3,2022/5/22,18:00,122,93
�n����ʂ�,3_1_3,2022/5/22,19:00,67,71
�n����ʂ�,3_1_3,2022/5/22,20:00,25,11
�n����ʂ�,3_1_3,2022/5/22,21:00,14,3
�n����ʂ�,3_1_3,2022/5/22,22:00,6,3
�n����ʂ�,3_1_3,2022/5/22,23:00,3,2
�n����ʂ�,3_1_3,2022/5/23,0:00,4,2
�n����ʂ�,3_1_3,2022/5/23,1:00,1,0
�n����ʂ�,3_1_3,2022/5/23,2:00,0,0
�n����ʂ�,3_1_3,2022/5/23,3:00,0,0
�n����ʂ�,3_1_3,2022/5/23,4:00,4,2
�n����ʂ�,3_1_3,2022/5/23,5:00,26,22
�n����ʂ�,3_1_3,2022/5/23,6:00,41,65
�n����ʂ�,3_1_3,2022/5/23,7:00,88,450
�n����ʂ�,3_1_3,2022/5/23,8:00,94,325
�n����ʂ�,3_1_3,2022/5/23,9:00,142,122
�n����ʂ�,3_1_3,2022/5/23,10:00,181,182
�n����ʂ�,3_1_3,2022/5/23,11:00,196,185
�n����ʂ�,3_1_3,2022/5/23,12:00,259,237
�n����ʂ�,3_1_3,2022/5/23,13:00,231,226
�n����ʂ�,3_1_3,2022/5/23,14:00,200,205
�n����ʂ�,3_1_3,2022/5/23,15:00,278,152
�n����ʂ�,3_1_3,2022/5/23,16:00,289,146
�n����ʂ�,3_1_3,2022/5/23,17:00,293,123
�n����ʂ�,3_1_3,2022/5/23,18:00,428,85
�n����ʂ�,3_1_3,2022/5/23,19:00,66,82
�n����ʂ�,3_1_3,2022/5/23,20:00,28,7
�n����ʂ�,3_1_3,2022/5/23,21:00,16,7
�n����ʂ�,3_1_3,2022/5/23,22:00,7,2
�n����ʂ�,3_1_3,2022/5/23,23:00,1,4
�n����ʂ�,3_1_3,2022/5/24,0:00,3,0
�n����ʂ�,3_1_3,2022/5/24,1:00,0,0
�n����ʂ�,3_1_3,2022/5/24,2:00,2,1
�n����ʂ�,3_1_3,2022/5/24,3:00,2,2
�n����ʂ�,3_1_3,2022/5/24,4:00,2,7
�n����ʂ�,3_1_3,2022/5/24,5:00,30,41
�n����ʂ�,3_1_3,2022/5/24,6:00,42,63
�n����ʂ�,3_1_3,2022/5/24,7:00,95,448
�n����ʂ�,3_1_3,2022/5/24,8:00,98,323
�n����ʂ�,3_1_3,2022/5/24,9:00,125,127
�n����ʂ�,3_1_3,2022/5/24,10:00,190,152
�n����ʂ�,3_1_3,2022/5/24,11:00,177,149
�n����ʂ�,3_1_3,2022/5/24,12:00,202,182
�n����ʂ�,3_1_3,2022/5/24,13:00,209,150
�n����ʂ�,3_1_3,2022/5/24,14:00,170,142
�n����ʂ�,3_1_3,2022/5/24,15:00,185,93
�n����ʂ�,3_1_3,2022/5/24,16:00,217,97
�n����ʂ�,3_1_3,2022/5/24,17:00,319,122
�n����ʂ�,3_1_3,2022/5/24,18:00,407,110
�n����ʂ�,3_1_3,2022/5/24,19:00,101,96
�n����ʂ�,3_1_3,2022/5/24,20:00,35,20
�n����ʂ�,3_1_3,2022/5/24,21:00,25,3
�n����ʂ�,3_1_3,2022/5/24,22:00,19,5
�n����ʂ�,3_1_3,2022/5/24,23:00,5,1
�n����ʂ�,3_1_3,2022/5/25,0:00,7,1
�n����ʂ�,3_1_3,2022/5/25,1:00,1,0
�n����ʂ�,3_1_3,2022/5/25,2:00,1,1
�n����ʂ�,3_1_3,2022/5/25,3:00,2,4
�n����ʂ�,3_1_3,2022/5/25,4:00,3,5
�n����ʂ�,3_1_3,2022/5/25,5:00,22,21
�n����ʂ�,3_1_3,2022/5/25,6:00,42,68
�n����ʂ�,3_1_3,2022/5/25,7:00,113,494
�n����ʂ�,3_1_3,2022/5/25,8:00,113,325
�n����ʂ�,3_1_3,2022/5/25,9:00,136,131
�n����ʂ�,3_1_3,2022/5/25,10:00,151,170
�n����ʂ�,3_1_3,2022/5/25,11:00,180,199
�n����ʂ�,3_1_3,2022/5/25,12:00,199,211
�n����ʂ�,3_1_3,2022/5/25,13:00,207,154
�n����ʂ�,3_1_3,2022/5/25,14:00,226,120
�n����ʂ�,3_1_3,2022/5/25,15:00,203,93
�n����ʂ�,3_1_3,2022/5/25,16:00,336,119
�n����ʂ�,3_1_3,2022/5/25,17:00,245,93
�n����ʂ�,3_1_3,2022/5/25,18:00,183,127
�n����ʂ�,3_1_3,2022/5/25,19:00,76,92
�n����ʂ�,3_1_3,2022/5/25,20:00,42,13
�n����ʂ�,3_1_3,2022/5/25,21:00,28,3
�n����ʂ�,3_1_3,2022/5/25,22:00,7,3
�n����ʂ�,3_1_3,2022/5/25,23:00,3,5
�n����ʂ�,3_1_3,2022/5/26,0:00,2,2
�n����ʂ�,3_1_3,2022/5/26,1:00,2,0
�n����ʂ�,3_1_3,2022/5/26,2:00,2,1
�n����ʂ�,3_1_3,2022/5/26,3:00,1,3
�n����ʂ�,3_1_3,2022/5/26,4:00,4,1
�n����ʂ�,3_1_3,2022/5/26,5:00,22,11
�n����ʂ�,3_1_3,2022/5/26,6:00,49,53
�n����ʂ�,3_1_3,2022/5/26,7:00,65,308
�n����ʂ�,3_1_3,2022/5/26,8:00,84,252
�n����ʂ�,3_1_3,2022/5/26,9:00,124,115
�n����ʂ�,3_1_3,2022/5/26,10:00,164,160
�n����ʂ�,3_1_3,2022/5/26,11:00,135,104
�n����ʂ�,3_1_3,2022/5/26,12:00,172,123
�n����ʂ�,3_1_3,2022/5/26,13:00,176,127
�n����ʂ�,3_1_3,2022/5/26,14:00,141,136
�n����ʂ�,3_1_3,2022/5/26,15:00,101,102
�n����ʂ�,3_1_3,2022/5/26,16:00,153,64
�n����ʂ�,3_1_3,2022/5/26,17:00,299,146
�n����ʂ�,3_1_3,2022/5/26,18:00,226,70
�n����ʂ�,3_1_3,2022/5/26,19:00,53,63
�n����ʂ�,3_1_3,2022/5/26,20:00,14,9
�n����ʂ�,3_1_3,2022/5/26,21:00,25,7
�n����ʂ�,3_1_3,2022/5/26,22:00,14,7
�n����ʂ�,3_1_3,2022/5/26,23:00,8,4
�n����ʂ�,3_1_3,2022/5/27,0:00,3,1
�n����ʂ�,3_1_3,2022/5/27,1:00,2,0
�n����ʂ�,3_1_3,2022/5/27,2:00,1,0
�n����ʂ�,3_1_3,2022/5/27,3:00,0,3
�n����ʂ�,3_1_3,2022/5/27,4:00,2,8
�n����ʂ�,3_1_3,2022/5/27,5:00,26,21
�n����ʂ�,3_1_3,2022/5/27,6:00,41,66
�n����ʂ�,3_1_3,2022/5/27,7:00,89,406
�n����ʂ�,3_1_3,2022/5/27,8:00,117,306
�n����ʂ�,3_1_3,2022/5/27,9:00,156,122
�n����ʂ�,3_1_3,2022/5/27,10:00,202,197
�n����ʂ�,3_1_3,2022/5/27,11:00,260,211
�n����ʂ�,3_1_3,2022/5/27,12:00,209,227
�n����ʂ�,3_1_3,2022/5/27,13:00,177,200